Regional Weather Roundup
Issued by NWS Grand Forks, ND

Home | Current Version | Previous Version | Text Only | Print | Product List | Glossary On
Versions: 1 2 3 4 5 6 7 8 9 10 11 12 13 14 15 16 17 18 19 20 21 22 23 24 25 26 27 28 29 30 31 32 33 34 35 36 37 38 39 40 41 42 43 44 45 46 47 48 49 50
000
ASUS43 KFGF 301210
RWRFGF
PRAIRIE TO PINES  WEATHER ROUNDUP
NATIONAL WEATHER SERVICE EASTERN NORTH DAKOTA/GRAND FORKS ND
700 AM CDT FRI SEP 30 2016

 **SATELLITE DATA USED TO AUGMENT SKY COVER AT AUTOMATED STATIONS**
 *****  WEATHER ACROSS EASTERN NORTH DAKOTA  *****

CITY           SKY/WX    TMP DP  RH WIND       PRES   REMARKS
GRAND FORKS    PTCLDY    44  41  89 SE7       30.32F
6HR MIN TEMP:  42; 6HR MAX TEMP:  49;

GRAND FRKS AFB PTCLDY    41  40  95 SE6       30.32S
GRAND FRKS NWS   N/A     45 N/A N/A SE9         N/A
DEVILS LAKE    CLEAR     50  47  89 SE15G21   30.26F
6HR MIN TEMP:  50; 6HR MAX TEMP:  53;

FARGO          CLEAR     50  47  89 SE9       30.33S
WAHPETON ARPT  SUNNY     45  41  87 SE6       30.35R
$$

 ***** WEATHER ACROSS CENTRAL AND WESTERN NORTH DAKOTA  *****

CITY           SKY/WX    TMP DP  RH WIND       PRES   REMARKS
BISMARCK       PTCLDY    52  46  80 SE9       30.17F
6HR MIN TEMP:  50; 6HR MAX TEMP:  53;

MINOT          CLOUDY    52  47  83 SE10      30.13S
6HR MIN TEMP:  48; 6HR MAX TEMP:  52;

JAMESTOWN      CLOUDY    46  44  93 SE10      30.27F
6HR MIN TEMP:  43; 6HR MAX TEMP:  49;

MINOT AFB      CLOUDY    51  47  85 SE14      30.12S
GARRISON         N/A     53  47  79 SE13      30.13R
WILLISTON      CLOUDY    58  46  64 SE7       30.03F
6HR MIN TEMP:  57; 6HR MAX TEMP:  62; 6HR PCP: TRACE;

DICKINSON      CLOUDY    54  43  66 SE20      30.05S
6HR MIN TEMP:  54; 6HR MAX TEMP:  56; 6HR PCP: TRACE;

HETTINGER      CLOUDY    55  42  61 SE16      30.09F
6HR MIN TEMP:  55; 6HR MAX TEMP:  58;

$$

 *****  OTHER AIRPORT OBSERVATIONS IN OUR AREA  *****

CITY           SKY/WX    TMP DP  RH WIND       PRES   REMARKS
WALHALLA       FAIR      43  41  93 SE9       30.31S
GRAFTON AIRPOR FAIR      43  43 100 SE6       30.34F
VALLEY CITY AR FAIR      46  46 100 S9        30.31F
CANDO          FAIR      48  48 100 SE9       30.27S
CAVALIER APRT  FAIR      45  43  93 SE5       30.32S
GWINNER        FAIR      45  45 100 SE7       30.31F
SHEYENNE NWR     N/A     42  40  94 E2        29.95S
ROLLA          FAIR      46  46 100 SE9       30.24F
 ***** THE ABOVE OBSERVATIONS ARE NON NWS ARE NOT QUALITY
       CONTROLLED AND MAY MIS-REPORT RAIN FOR SNOW...
$$

  *****  WEATHER ACROSS NORTHERN MINNESOTA  *****

CITY           SKY/WX    TMP DP  RH WIND       PRES   REMARKS
FLAG ISLAND    CLOUDY    55  48  76 SE10      30.38S
WARROAD        CLOUDY    52  46  82 SE6       30.39F
ROSEAU         HAZE      48  43  81 SE6       30.37F VSB 3/4
HALLOCK        CLEAR     48  45  87 SE8       30.33F
THF RVR FALLS  CLEAR     44  43  96 SE8       30.36F
6HR MIN TEMP:  44; 6HR MAX TEMP:  47;

BAUDETTE       MOCLDY    48  46  93 SE8       30.42R
6HR MIN TEMP:  48; 6HR MAX TEMP:  53;

WASKISH        CLOUDY    45  43  93 E7        30.40F FOG
CROOKSTON      CLEAR     46  45  93 SE8       30.35S
STEPHEN NDAWN    N/A     45  45 100 SE3         N/A
GREENBUSH NDAW   N/A     45  45 100 SE6         N/A
$$
  *****  WEATHER ACROSS CENTRAL AND WEST MINNESOTA  *****

CITY           SKY/WX    TMP DP  RH WIND       PRES   REMARKS
FOSSTON        PTCLDY    45  41  87 SE5       30.37S FOG
BEMIDJI        FOG       46  46 100 SE8       30.39F VSB 1/4
PARK RAPIDS    FOG       48  46  93 SE7       30.39S VSB 1/4
6HR MIN TEMP:  46; 6HR MAX TEMP:  50;

ELBOW LAKE     FAIR      47  47 100 SE9       30.36R
WADENA         FOG       43  43 100 E5        30.38F VSB 1/2
DETROIT LAKES  FOG       48  46  93 SE10      30.37S VSB 1/2
MOORHEAD       CLEAR     48  46  93 SE6       30.34S
FERGUS FALLS   CLEAR     50  50 100 E6        30.38R
MORRIS MN      CLEAR     43  43 100 E6        30.34S FOG
STAPLES        FOG       48  46  93 SE5       30.40R VSB 3/4
$$
  *****  WEATHER ELSEWHERE ACROSS MINNESOTA  *****

CITY           SKY/WX    TMP DP  RH WIND       PRES   REMARKS
DULUTH         CLOUDY    51  50  96 E7        30.44S
6HR MIN TEMP:  50; 6HR MAX TEMP:  51;

INTRNTL FALLS  FOG       45  45 100 SE6       30.43S VSB 1/4
6HR MIN TEMP:  42; 6HR MAX TEMP:  50;

ELY            CLOUDY    48  48 100 CALM      30.45S
CLOQUET        CLOUDY    52  48  87 E7        30.43F
WHEATON        NOT AVBL
BRAINERD       CLOUDY    51  50  96 CALM      30.42R
6HR MIN TEMP:  47; 6HR MAX TEMP:  51;

HIBBING        CLOUDY    48  48 100 SE6       30.44S FOG
6HR MIN TEMP:  45; 6HR MAX TEMP:  49;

ALEXANDRIA     FOG       46  46 100 E8        30.38S VSB 1/2
6HR MIN TEMP:  46; 6HR MAX TEMP:  50;

SAINT CLOUD    FOG       50  50 100 E5        30.40R VSB 3/4
6HR MIN TEMP:  48; 6HR MAX TEMP:  50;

MINNEAPOLIS    CLEAR     50  48  93 N6        30.38S
6HR MIN TEMP:  50; 6HR MAX TEMP:  56;

$$

  *****  WEATHER ACROSS SOUTH DAKOTA  *****

CITY           SKY/WX    TMP DP  RH WIND       PRES   REMARKS
SIOUX FALLS    CLEAR     42  40  92 CALM      30.33S
6HR MIN TEMP:  41; 6HR MAX TEMP:  49;

BROOKINGS      CLEAR     38  38 100 NW3       30.33R
WATERTOWN      CLEAR     46  43  89 SE5       30.32S
6HR MIN TEMP:  46; 6HR MAX TEMP:  53;

HURON          CLEAR     45  44  97 SE7       30.29F
6HR MIN TEMP:  45; 6HR MAX TEMP:  49;

SISSETON         N/A     42  41  96 S6        30.33S
ABERDEEN       CLOUDY    42  40  92 SE8       30.29S
6HR MIN TEMP:  42; 6HR MAX TEMP:  48;

MITCHELL       CLEAR     44  42  93 SE7       30.31S
PIERRE         MOCLDY    51  44  77 SE12      30.20S
6HR MIN TEMP:  51; 6HR MAX TEMP:  55;

MOBRIDGE       CLOUDY    56  45  66 SE17G25   30.17R
RAPID CITY     CLOUDY    56  43  61 E9        30.10F
6HR MIN TEMP:  56; 6HR MAX TEMP:  62;

$$

  *****  SOME WEATHER IN NEARBY STATES *****

CITY           SKY/WX    TMP DP  RH WIND       PRES   REMARKS
GLASGOW MT     CLOUDY    52  45  77 E9        29.95S
6HR MIN TEMP:  52; 6HR MAX TEMP:  61;

GREAT FALLS MT CLEAR     49  44  83 S8        30.02S
6HR MIN TEMP:  45; 6HR MAX TEMP:  54;

CHEYENNE WY    CLOUDY    58  45  62 NW8       30.24F
6HR MIN TEMP:  50; 6HR MAX TEMP:  58;

SCOTTSBLUFF NE CLOUDY    46  40  79 SE9       30.19F
6HR MIN TEMP:  46; 6HR MAX TEMP:  56;

OMAHA NE       CLEAR     47  43  86 N6        30.30R
6HR MIN TEMP:  46; 6HR MAX TEMP:  51;

DES MOINES IA  PTCLDY    55  49  80 N8        30.27F
6HR MIN TEMP:  53; 6HR MAX TEMP:  59;

DAVENPORT IA   CLOUDY    56  53  90 N10       30.21F
6HR MIN TEMP:  53; 6HR MAX TEMP:  56;

CHICAGO IL     CLOUDY    60  59  96 N10       30.14F
6HR MIN TEMP:  60; 6HR MAX TEMP:  61; 6HR PCP:  0.08;

EAU CLAIRE WI  CLEAR     48  47  96 NE3       30.37R
6HR MIN TEMP:  47; 6HR MAX TEMP:  53;

LA CROSSE WI   MOCLDY    55  52  89 NW7       30.33S
6HR MIN TEMP:  52; 6HR MAX TEMP:  56;

$$

  *****  SOME NATIONAL WEATHER *****

CITY           SKY/WX    TMP DP  RH WIND       PRES   REMARKS
LA GUARDIA NY  CLOUDY    62  54  74 NE31G39   30.29S
6HR MIN TEMP:  61; 6HR MAX TEMP:  62;

RALEIGH NC     CLOUDY    73  71  93 SE8       30.01S
6HR MIN TEMP:  73; 6HR MAX TEMP:  74; 6HR PCP: TRACE;

ATLANTA GA     PTCLDY    53  49  86 W9        30.05R
6HR MIN TEMP:  52; 6HR MAX TEMP:  58;

NEW ORLEANS LA PTCLDY    71  57  61 NE10      30.09R
6HR MIN TEMP:  71; 6HR MAX TEMP:  74;

OKLAHOMA CITY  PTCLDY    51  48  89 NW6       30.26R
6HR MIN TEMP:  51; 6HR MAX TEMP:  57;

ALBUQUERQUE NM MOCLDY    58  55  90 E3        30.34S
6HR MIN TEMP:  58; 6HR MAX TEMP:  60; 6HR PCP:  0.01;

SALT LAKE CITY PTCLDY    63  50  62 SE10      30.18R
6HR MIN TEMP:  63; 6HR MAX TEMP:  67;

LOS ANGELES CA CLEAR     68  61  78 W3        30.02R
6HR MIN TEMP:  67; 6HR MC1F1C2F2C3F3C4F4C5F5C6F6C7F7C8F8C9F9CaFaCbFbCcFcCd!


USA.gov is the U.S. government's official web portal to all federal, state and local government web resources and services.